Location: Kermapucano
(48.0667°N, 3.3000°W)
Time: 20:48:37
(UTC+00:00)

Cosmos 494 Rocket - Pass Details

Date: 29 November 2020
Orbit: 743 x 770 km, 74.1° (Epoch: 27 January)

Event Time Altitude Azimuth Distance (km) Brightness Sun altitude
Exits shadow 06:55:30 - 337° (NNW) 3,264 6.8 -7.4°
Rises 06:55:37 0° 337° (NNW) 3,220 6.8 -7.4°
Reaches altitude 10° 06:58:00 10° 339° (NNW) 2,287 6.0 -7.0°
Maximum altitude 07:03:11 83° 66° (ENE) 761 4.1 -6.2°
Drops below altitude 10° 07:08:19 10° 156° (SSE) 2,256 7.3 -5.5°
Sets 07:10:39 0° 157° (SSE) 3,173 8.1 -5.1°
